SCP
1 1 1 1 2 2 2 1 1 1 1 1 1 1 1 1 1 1 1 1 1 1 2 3 3 4 3 3 3 2 1 1 1 1 1 1 1 0 0 0 0 0 0
1 1 1 1 2 2 2 1 1 1 1 1 1 1 1 1 1 1 1 1 1 1 2 2 3 3 3 3 3 2 1 1 1 1 0 1 1 0 0 0 0 0 0
1 1 1 1 2 2 2 1 1 1 1 1 1 1 1 1 1 1 1 1 1 1 1 2 2 3 3 3 2 1 1 1 1 1 0 0 0 0 1 0 0 0 0
1 1 1 1 1 2 2 1 1 1 1 1 1 1 1 1 1 1 1 1 1 1 1 1 2 2 2 2 2 1 1 1 1 1 0 0 0 0 0 0 0 0 0
1 1 1 1 1 1 1 1 1 1 1 1 1 1 1 1 1 1 1 0 1 1 1 1 1 2 2 2 1 1 1 1 1 1 0 0 0 0 0 0 0 0 0
1 1 1 1 1 1 1 1 1 1 1 1 1 1 1 1 0 0 1 1 1 0 0 1 1 1 1 1 1 1 1 1 1 1 0 0 0 1 0 0 0 0 0
1 1 1 1 1 1 1 0 0 0 0 1 1 1 0 0 0 0 1 1 1 0 0 1 1 1 1 1 1 1 2 2 1 0 0 0 1 1 1 0 0 0 0
1 1 1 1 1 1 0 0 0 0 0 1 1 1 0 0 0 0 1 1 0 0 0 0 1 1 1 1 1 1 2 2 1 0 0 1 1 1 1 1 0 0 0
1 1 1 1 1 1 1 1 1 1 1 1 1 1 0 0 0 1 1 1 1 1 1 1 1 1 1 1 1 1 1 2 1 1 1 1 1 1 1 1 1 0 0
1 1 1 1 1 1 1 1 1 1 1 1 1 1 1 1 1 1 1 1 1 1 1 1 1 1 1 1 1 1 1 1 1 1 1 1 1 1 1 1 1 1 0
1 1 1 1 1 1 1 1 1 1 1 1 1 1 1 1 1 1 1 2 2 2 1 1 1 1 1 1 1 1 1 1 1 1 1 1 1 1 1 1 1 1 1
1 1 1 1 1 1 1 1 1 1 2 2 2 2 2 2 1 1 2 3 3 2 2 2 1 1 1 1 1 1 1 1 1 1 1 1 1 1 1 1 1 1 1
1 1 1 1 1 1 1 1 1 1 2 2 2 2 3 3 2 2 2 3 3 3 2 2 1 1 1 1 1 1 1 1 1 1 1 1 1 1 1 1 1 1 1
1 1 1 2 2 2 2 1 1 2 2 2 2 3 3 3 3 3 3 3 3 3 3 2 2 2 1 1 1 1 1 1 1 1 1 1 1 1 1 1 1 1 1
2 2 2 3 4 3 2 2 2 2 2 2 2 2 3 3 3 3 3 3 3 3 3 3 2 2 2 2 1 1 1 1 1 1 1 1 1 1 1 1 1 1 1
3 3 3 4 4 3 2 2 2 2 2 2 2 2 2 3 3 3 4 3 3 2 3 3 3 3 3 2 1 1 1 1 1 1 1 1 1 2 2 2 2 2 2
3 3 3 4 3 3 2 2 2 2 2 2 2 2 2 2 3 4 4 3 2 2 2 3 3 4 3 2 1 1 1 1 2 2 1 1 1 2 2 2 2 2 2
4 4 3 3 3 2 2 1 1 1 1 2 2 2 2 2 3 3 3 3 2 2 2 2 3 4 4 2 1 1 1 1 2 2 2 2 1 2 2 2 2 2 2
4 4 4 3 3 2 2 1 1 1 1 2 2 2 2 2 3 3 3 3 2 2 2 2 3 4 4 2 1 1 1 1 2 2 2 1 1 2 2 2 2 2 2
5 5 4 4 3 3 2 2 2 2 2 2 2 2 2 2 2 2 3 3 2 2 2 3 4 4 3 2 1 1 1 1 1 2 2 1 1 2 2 2 2 2 2
5 5 4 4 4 3 3 2 2 2 2 2 2 2 3 3 2 2 2 3 3 3 3 3 4 4 3 2 1 1 1 1 1 1 1 1 1 2 2 2 3 3 2
6 6 5 4 4 4 3 3 3 3 3 3 3 3 3 3 3 2 2 3 3 3 3 3 3 3 3 2 1 1 1 1 1 1 1 2 2 2 2 2 3 3 3
6 6 6 5 4 4 4 3 3 3 3 3 3 3 3 3 3 3 3 3 3 3 3 2 2 3 2 2 1 1 1 1 1 1 1 2 2 2 2 2 3 4 4
6 6 7 6 5 4 4 4 3 3 3 3 3 4 4 3 3 3 3 3 3 3 3 2 2 2 2 2 2 2 2 1 1 1 2 2 2 2 2 2 3 4 4
5 6 6 7 6 5 4 4 3 3 3 3 4 4 4 4 4 4 5 4 4 4 3 3 2 2 2 2 2 2 2 2 2 2 2 2 2 2 2 3 3 3 3
5 6 6 7 6 5 4 4 3 3 3 3 4 4 4 4 4 5 5 5 4 4 3 3 3 2 2 2 2 2 2 2 2 2 1 2 2 2 2 3 3 3 3
Wind_Speed
10 11 12 11 11 11 12 12 12 12 12 12 13 14 14 14 14 14 14 13 13 13 13 12 11 11 11 11 10 10 9 9 10 10 11 11 10 9 8 8 8 8 12
12 11 12 12 11 11 12 12 12 12 12 13 13 13 13 13 14 13 13 12 12 12 12 11 11 10 10 10 9 9 8 8 8 9 10 9 9 8 7 6 8 8 10
13 11 11 12 12 12 12 12 11 12 12 12 13 13 13 13 13 12 12 11 11 11 11 11 10 10 9 9 8 8 7 6 6 8 8 6 7 8 8 9 10 10 9
13 11 12 14 13 12 12 12 11 11 12 12 12 12 12 12 12 11 11 10 10 10 10 9 9 9 8 7 7 6 6 5 5 5 4 5 6 9 9 9 8 8 8
13 13 13 14 13 12 12 11 11 11 12 12 11 11 11 11 11 11 10 10 10 9 9 8 8 7 6 6 6 5 5 5 4 5 3 4 6 10 10 9 8 8 8
14 14 13 14 13 12 12 11 12 11 11 11 11 11 10 10 10 10 9 9 9 8 8 7 7 6 5 5 5 4 4 5 5 4 3 5 6 10 9 9 8 7 7
14 13 13 13 13 12 11 11 11 11 11 10 10 10 9 9 9 9 9 8 8 7 7 6 5 5 4 4 5 4 5 6 5 3 2 5 7 11 10 8 8 7 6
14 13 12 13 13 12 11 11 11 11 10 10 9 9 9 8 8 8 8 8 7 7 6 6 5 5 4 4 5 5 5 6 4 2 3 5 10 11 10 8 8 7 7
13 13 11 11 11 11 11 11 11 10 10 10 9 8 8 8 8 8 8 8 7 7 7 6 6 6 5 5 6 6 6 6 4 3 4 5 11 12 10 9 8 7 7
11 11 11 11 10 9 9 10 11 10 10 9 9 8 8 8 8 8 8 7 7 7 7 7 7 7 6 7 7 8 8 7 5 4 3 7 13 12 10 9 8 8 7
10 9 8 9 9 9 9 10 10 10 9 8 7 7 7 5 6 6 7 9 8 8 8 8 8 8 8 9 10 10 8 4 3 2 4 10 13 12 10 9 8 8 7
9 9 7 7 7 6 6 7 5 6 7 5 4 5 4 3 3 5 8 10 9 9 9 9 8 8 9 6 8 10 5 6 4 2 5 12 12 11 10 9 9 8 8
8 8 7 6 6 5 4 4 2 3 4 4 4 3 2 2 2 3 3 5 6 7 6 6 7 6 5 4 4 5 5 4 2 2 7 12 12 11 11 10 9 9 9
8 8 7 6 5 4 3 3 3 3 3 3 3 3 1 1 0 1 1 2 3 3 3 3 3 4 4 3 4 4 4 2 2 2 6 12 11 11 11 10 10 10 9
8 7 7 6 5 3 2 1 2 3 3 3 3 2 1 2 1 1 1 1 1 1 2 2 2 2 3 4 4 4 3 3 3 3 4 12 12 11 11 11 10 10 10
8 7 7 7 5 3 2 0 1 2 2 2 3 3 2 1 1 0 1 1 1 1 1 2 2 2 2 2 3 3 3 3 4 4 5 8 12 12 11 11 11 11 10
8 7 6 7 6 4 2 1 1 1 2 2 2 3 2 1 1 1 1 2 1 1 1 1 2 1 2 2 2 3 3 3 4 4 4 5 6 11 12 11 11 10 10
8 7 5 5 6 4 2 1 0 0 1 1 1 2 2 1 1 1 2 1 1 1 2 1 1 1 1 1 1 2 2 3 4 5 4 4 4 5 9 12 11 10 11
8 7 5 4 5 4 3 1 1 0 1 1 2 2 1 1 1 2 1 1 2 1 1 2 1 1 1 1 2 2 2 2 2 3 3 4 4 3 4 9 12 11 11
8 7 6 4 4 3 3 2 1 1 0 0 1 1 1 1 1 1 1 1 2 1 1 1 1 2 2 2 3 2 2 2 2 3 3 3 3 4 4 4 6 7 11
9 7 6 5 4 3 2 1 1 1 1 1 1 2 1 1 1 1 2 2 2 1 1 2 1 2 2 1 1 2 2 2 2 2 2 2 3 3 3 4 4 4 4
10 8 6 5 4 3 3 2 2 2 1 1 1 2 2 1 1 1 1 1 1 1 1 1 1 1 2 1 1 1 1 1 1 2 2 3 3 2 2 4 4 4 3
10 9 7 6 4 3 3 2 1 1 1 1 1 1 1 1 0 1 1 1 1 1 2 2 2 2 1 1 1 1 0 1 2 1 2 1 2 1 2 3 4 4 4
10 9 7 6 5 4 3 2 2 2 1 1 1 1 1 1 1 1 0 1 1 1 0 2 1 2 2 2 2 1 1 1 1 1 1 1 1 2 2 2 2 3 3
10 9 8 7 5 4 3 3 2 2 1 0 1 1 1 1 1 1 0 0 1 1 1 1 1 1 1 2 2 1 2 1 2 1 2 1 2 2 2 3 2 2 3
9 8 8 7 6 5 4 4 3 2 1 1 1 1 1 1 1 1 1 0 1 1 1 1 1 2 2 2 2 2 1 1 2 1 2 2 2 2 3 3 3 3 3
Wind_Direction
105 109 111 109 106 105 107 107 107 108 108 109 109 108 109 109 110 110 110 111 114 116 118 116 114 114 111 107 104 103 103 104 106 106 105 103 102 102 105 111 109 103 107
111 113 114 113 110 108 107 109 109 111 112 112 113 112 112 112 112 113 114 114 115 116 118 117 117 116 115 114 112 113 114 117 119 124 121 115 112 110 108 102 93 105 112
109 111 114 115 112 110 109 110 109 112 114 114 115 115 113 114 114 115 117 118 117 117 119 120 120 117 118 120 123 126 130 135 141 146 146 134 127 121 111 103 104 112 113
110 110 108 113 111 110 110 111 111 113 113 114 115 117 116 117 118 119 122 121 121 120 121 121 121 121 123 126 131 139 147 154 165 182 184 157 137 128 123 117 117 120 120
107 106 110 113 113 111 111 111 114 114 114 113 115 119 121 122 123 123 125 126 127 127 126 126 128 131 135 140 143 154 167 177 197 221 206 126 111 132 132 129 127 128 129
109 108 115 116 115 113 112 115 118 119 119 121 121 124 127 128 129 129 130 130 131 131 132 134 137 143 150 156 165 178 191 208 227 227 167 126 125 139 139 139 139 139 138
110 112 119 120 120 118 117 116 120 122 124 125 126 127 129 133 136 137 137 135 134 136 139 142 148 154 166 175 190 208 224 235 236 233 146 128 134 143 145 148 151 152 147
110 113 119 124 124 124 123 122 121 124 127 126 128 132 134 136 141 145 146 146 147 147 153 158 164 175 190 199 210 227 243 252 236 204 155 131 141 148 152 156 162 164 164
113 118 126 130 129 128 128 126 126 128 131 131 135 138 143 147 149 154 156 158 161 164 170 174 179 190 203 213 222 234 247 252 257 227 170 139 149 153 157 163 170 176 179
112 118 129 135 132 135 134 134 136 137 137 140 145 151 158 164 164 166 168 173 177 183 187 190 194 200 210 223 230 236 246 259 237 215 151 148 155 157 163 170 174 183 188
110 113 119 124 130 137 139 143 149 148 149 151 157 167 171 179 175 178 181 175 186 194 200 204 207 210 215 226 231 235 243 244 233 193 141 150 161 163 169 175 178 187 194
115 115 116 119 122 129 131 137 156 157 153 162 161 172 186 188 178 171 162 179 191 200 207 214 220 222 222 221 222 224 233 226 218 179 148 159 162 167 175 181 186 193 200
119 112 116 116 112 118 118 138 145 143 148 161 153 168 179 185 172 161 167 182 197 203 209 207 216 226 224 218 215 209 217 228 189 155 153 163 168 174 181 188 194 199 206
124 117 113 104 100 99 103 120 143 144 148 151 149 176 168 169 185 152 166 180 189 196 196 203 211 226 232 231 230 225 218 202 174 144 159 171 176 181 185 191 198 205 208
120 117 110 105 101 97 88 107 143 147 151 148 146 162 179 177 175 189 221 201 211 193 185 207 224 225 231 228 232 226 213 195 186 168 160 181 185 189 191 194 200 208 212
128 123 118 116 109 105 113 129 107 129 124 136 146 157 185 163 144 184 255 236 225 190 197 202 222 224 226 239 244 241 223 200 185 173 171 184 192 196 198 200 204 210 214
130 126 130 134 127 133 149 158 124 133 140 158 148 148 167 172 165 201 241 235 211 200 201 212 226 222 211 231 245 249 240 217 193 183 183 187 191 199 202 205 208 213 215
131 130 133 135 131 139 133 114 100 117 124 131 133 133 177 189 184 232 246 252 235 219 206 212 235 218 224 247 260 253 248 221 202 192 193 189 188 193 200 205 207 212 215
130 131 136 135 135 142 139 152 213 182 118 148 132 126 173 183 199 243 264 280 269 252 221 240 191 211 242 246 256 242 244 248 213 208 190 194 189 184 182 197 204 210 215
135 134 143 144 131 145 148 172 198 196 146 147 128 134 156 205 225 263 260 248 256 249 249 269 259 237 238 237 266 274 259 254 229 212 196 195 187 190 185 187 189 207 214
143 143 149 149 145 152 152 184 186 187 203 204 184 137 146 231 240 252 289 252 252 239 226 230 239 249 253 240 279 291 278 239 222 208 191 193 200 200 188 178 185 191 197
152 152 154 155 158 171 172 188 193 192 208 199 145 131 163 223 240 249 256 260 258 236 225 241 221 264 275 239 252 280 297 317 298 251 195 194 188 192 191 198 192 191 204
160 162 164 162 166 177 182 187 194 173 202 157 147 146 179 194 209 313 334 303 290 237 198 212 208 233 252 263 236 233 230 244 285 251 241 190 163 190 216 213 200 187 201
165 163 157 158 162 170 180 186 191 186 189 189 175 148 158 156 202 239 269 281 284 289 229 232 195 221 224 248 260 248 241 244 251 271 281 243 221 219 226 238 218 203 202
166 163 160 159 163 167 182 193 199 208 209 198 162 158 173 172 212 239 211 203 234 269 278 290 309 234 235 250 265 267 259 261 257 246 260 266 263 240 232 226 213 214 215
161 159 158 160 168 172 181 186 197 213 233 262 231 200 203 193 186 202 196 207 242 267 273 291 288 255 246 263 269 271 269 260 263 270 271 257 252 249 238 228 213 213 216